Powrót do katalogu

SKYNET 5D

AktywnyMilitariaGEO
NORAD 39034·PAYLOAD·🇬🇧 United Kingdom

Wystrzelony Dec 19, 2012 z Guiana Space Centre

Loading…

TLE

ŚwieżeSource: Space-Track

Epoka: Sep 14, 2026, 14:03 UTC

1 39034U 12075A   26257.58558772  .00000091  00000-0  00000-0 0  9993
2 39034   0.0768   7.3745 0003743 175.3526  74.3793  1.00273685 50059

Śledź SKYNET 5D w czasie rzeczywistym z AllMySat

Download on the App Store